Regional Weather Roundup
Issued by NWS

Home | Current Version | Previous Version | Graphics & Text | Print | Product List | Glossary On
Versions: 1 2 3 4 5 6 7 8 9 10 11 12 13 14 15 16 17 18 19 20 21 22 23 24 25 26 27 28 29 30 31 32 33 34 35 36 37 38 39 40 41 42 43 44 45 46 47 48 49 50
000
ASUS43 KFSD 212210
RWRSD

WEATHER ROUNDUP FOR SOUTH DAKOTA
NATIONAL WEATHER SERVICE SIOUX FALLS SD
500 PM CDT WED JUN 21 2017

NOTE: "FAIR" INDICATES FEW OR NO CLOUDS BELOW 12,000 FEET WITH NO
SIGNIFICANT WEATHER AND/OR OBSTRUCTIONS TO VISIBILITY.


SDZ001>005-009-010-012>017-212300-
NORTHWEST AND NORTH CENTRAL SOUTH DAKOTA

CITY           SKY/WX    TMP DP  RH WIND       PRES   REMARKS
BUFFALO          N/A     85  42  22 NW14G29   29.76S
FAITH            N/A     90  48  23 NW12G26   29.76S
MOBRIDGE       CLOUDY    89  51  27 NW15G21   29.66R
$$

SDZ012>016-024>037-041>051-057-063-072>074-212300-
SOUTHWEST AND SOUTH CENTRAL SOUTH DAKOTA

CITY           SKY/WX    TMP DP  RH WIND       PRES   REMARKS
RAPID CTY ARPT MOSUNNY   91  51  25 N14G20    29.80F
PIERRE         SUNNY     92  61  35 NW6       29.68F
CUSTER         SUNNY     86  37  17 W14G22    29.97F
ELLSWORTH AFB  SUNNY     90  50  25 N8G23     29.80F
PHILIP         MOSUNNY   95  50  21 N8        29.71F
PINE RIDGE     SUNNY     94  56  27 N5        29.80F
SPEARFISH      LGT RAIN  82  52  34 NE9       29.87F
WINNER         FAIR      95  60  31 CALM      29.70F HX  95
$$

SDZ004>011-016>023-039-040-212300-
NORTHEAST SOUTH DAKOTA

CITY           SKY/WX    TMP DP  RH WIND       PRES   REMARKS
ABERDEEN       SUNNY     90  63  40 S12       29.66F
WATERTOWN      SUNNY     82  64  54 S10       29.72F
BROOKINGS      SUNNY     82  66  58 S10G16    29.73F
SISSETON         N/A     88  63  43 SW16      29.65F
$$

SDZ017-020-022-023-036>040-048>070-212300-
SOUTHEAST SOUTH DAKOTA

CITY           SKY/WX    TMP DP  RH WIND       PRES   REMARKS
SIOUX FALLS    PTSUNNY   85  70  60 S10       29.71F
HURON          SUNNY     86  65  49 SE6       29.69F
CHAMBERLAIN    SUNNY     91  67  45 CALM      29.69F
MITCHELL       SUNNY     88  66  48 SE10      29.68F
YANKTON        SUNNY     91  66  43 SW10      29.67F
$$

ABBREVIATIONS USED IN REMARKS
   TC - TEMPERATURE IN CELSIUS
  WCI - WIND CHILL INDEX
   HX - HEAT INDEX
  VSB - VISIBILITY





USA.gov is the U.S. government's official web portal to all federal, state and local government web resources and services.